Radiation Dose at Monitoring Post of Fukushima Daini Nuclear Power Station
Date,Time,MP-1(microSv/h),MP-2(microSv/h),MP-3(microSv/h),MP-4(microSv/h),MP-5(microSv/h),MP-6(microSv/h),MP-7(microSv/h),Wind Direction,Wind Velocity(m/s),Rain
2015/12/14,00:00,0.451,0.267,0.474,0.430,0.415,0.217,0.188,north-northwest,8.7,No
2015/12/14,00:10,0.450,0.266,0.474,0.430,0.416,0.217,0.189,north-northwest,8.5,No
2015/12/14,00:20,0.452,0.266,0.474,0.431,0.418,0.217,0.189,north-northwest,8.9,No
2015/12/14,00:30,0.453,0.267,0.472,0.431,0.417,0.217,0.189,north-northwest,9.2,No
2015/12/14,00:40,0.452,0.267,0.475,0.429,0.416,0.217,0.188,north-northwest,9.3,No
2015/12/14,00:50,0.449,0.267,0.473,0.430,0.417,0.217,0.190,north-northwest,8.9,No
2015/12/14,01:00,0.451,0.268,0.474,0.431,0.416,0.217,0.189,north-northwest,8.8,No
2015/12/14,01:10,0.450,0.266,0.476,0.430,0.417,0.217,0.188,north-northwest,9.2,No
2015/12/14,01:20,0.451,0.265,0.474,0.432,0.418,0.217,0.188,north-northwest,8.9,No
2015/12/14,01:30,0.451,0.267,0.474,0.430,0.415,0.217,0.189,north-northwest,10.4,No
2015/12/14,01:40,0.448,0.267,0.476,0.430,0.418,0.218,0.189,north-northwest,10.1,No
2015/12/14,01:50,0.451,0.266,0.472,0.432,0.418,0.218,0.190,north,9.8,No
2015/12/14,02:00,0.452,0.267,0.474,0.430,0.417,0.217,0.189,north-northwest,9.2,No
2015/12/14,02:10,0.450,0.267,0.475,0.430,0.417,0.218,0.190,north,9.2,No
2015/12/14,02:20,0.454,0.267,0.476,0.431,0.418,0.217,0.189,north-northwest,10.3,No
2015/12/14,02:30,0.452,0.268,0.475,0.430,0.418,0.218,0.189,north-northwest,11.1,No
2015/12/14,02:40,0.450,0.267,0.476,0.431,0.418,0.218,0.189,north-northwest,11.8,No
2015/12/14,02:50,0.452,0.267,0.474,0.432,0.418,0.218,0.190,north-northwest,11.2,No
2015/12/14,03:00,0.450,0.268,0.474,0.429,0.417,0.217,0.190,north-northwest,10.0,No
2015/12/14,03:10,0.451,0.267,0.474,0.430,0.417,0.218,0.190,north-northwest,10.4,No
2015/12/14,03:20,0.453,0.267,0.473,0.432,0.419,0.217,0.189,north-northwest,10.0,No
2015/12/14,03:30,0.452,0.268,0.477,0.429,0.417,0.218,0.189,north-northwest,9.8,No
2015/12/14,03:40,0.450,0.267,0.473,0.430,0.417,0.217,0.189,north-northwest,10.4,No
2015/12/14,03:50,0.453,0.268,0.474,0.430,0.417,0.217,0.190,north-northwest,10.0,No
2015/12/14,04:00,0.451,0.267,0.477,0.431,0.418,0.219,0.190,north-northwest,8.8,No
2015/12/14,04:10,0.451,0.267,0.475,0.431,0.416,0.217,0.189,north-northwest,9.8,No
2015/12/14,04:20,0.452,0.268,0.476,0.432,0.418,0.217,0.190,north-northwest,10.1,No
2015/12/14,04:30,0.449,0.267,0.477,0.430,0.417,0.216,0.189,north-northwest,9.2,No
2015/12/14,04:40,0.452,0.266,0.474,0.431,0.416,0.218,0.188,north-northwest,8.1,No
2015/12/14,04:50,0.451,0.266,0.476,0.432,0.419,0.218,0.189,north-northwest,8.1,No
2015/12/14,05:00,0.451,0.266,0.475,0.430,0.419,0.218,0.189,north-northwest,9.2,No
2015/12/14,05:10,0.454,0.267,0.473,0.431,0.418,0.217,0.189,north-northwest,9.2,No
2015/12/14,05:20,0.450,0.266,0.476,0.430,0.417,0.218,0.189,north-northwest,8.3,No
2015/12/14,05:30,0.450,0.268,0.475,0.430,0.419,0.217,0.189,north-northwest,8.4,No
2015/12/14,05:40,0.452,0.268,0.475,0.431,0.418,0.218,0.191,north-northwest,8.7,No
2015/12/14,05:50,0.450,0.266,0.476,0.432,0.420,0.218,0.188,north-northwest,8.7,No
2015/12/14,06:00,0.451,0.268,0.475,0.430,0.417,0.217,0.190,north-northwest,8.8,No
2015/12/14,06:10,0.453,0.268,0.474,0.432,0.416,0.218,0.189,north-northwest,8.2,No
2015/12/14,06:20,0.452,0.266,0.476,0.431,0.419,0.217,0.189,north-northwest,9.3,No
2015/12/14,06:30,0.453,0.266,0.474,0.429,0.416,0.218,0.188,north-northwest,8.7,No
2015/12/14,06:40,0.453,0.268,0.476,0.433,0.419,0.217,0.189,north-northwest,8.3,No
2015/12/14,06:50,0.450,0.266,0.475,0.431,0.419,0.217,0.190,north-northwest,8.7,No
2015/12/14,07:00,0.453,0.266,0.474,0.431,0.418,0.218,0.189,north-northwest,8.1,No
2015/12/14,07:10,0.453,0.268,0.477,0.431,0.417,0.217,0.189,north-northwest,7.5,No
2015/12/14,07:20,0.451,0.267,0.476,0.431,0.418,0.218,0.189,north-northwest,7.0,No
2015/12/14,07:30,0.453,0.266,0.473,0.432,0.416,0.218,0.190,north-northwest,7.5,No
2015/12/14,07:40,0.452,0.268,0.476,0.432,0.418,0.217,0.189,north-northwest,7.9,No
2015/12/14,07:50,0.449,0.267,0.473,0.431,0.419,0.218,0.189,north-northwest,8.1,No
2015/12/14,08:00,0.454,0.267,0.474,0.432,0.417,0.217,0.189,north-northwest,8.2,No
2015/12/14,08:10,0.451,0.267,0.475,0.431,0.418,0.218,0.190,north,8.4,No
2015/12/14,08:20,0.451,0.266,0.475,0.431,0.418,0.218,0.188,north-northwest,8.1,No
2015/12/14,08:30,0.454,0.267,0.475,0.432,0.418,0.218,0.189,north-northwest,6.2,No
2015/12/14,08:40,0.451,0.268,0.474,0.428,0.416,0.218,0.190,north-northwest,6.5,No
2015/12/14,08:50,0.452,0.267,0.474,0.431,0.419,0.218,0.190,north-northwest,7.0,No
2015/12/14,09:00,0.454,0.266,0.477,0.432,0.417,0.217,0.190,north-northwest,7.3,No
2015/12/14,09:10,0.450,0.268,0.475,0.430,0.417,0.218,0.189,north-northwest,5.9,No
2015/12/14,09:20,0.452,0.268,0.475,0.433,0.419,0.217,0.189,north-northwest,4.3,No
2015/12/14,09:30,0.451,0.267,0.476,0.429,0.416,0.218,0.190,north-northwest,4.4,No
2015/12/14,09:40,0.451,0.268,0.474,0.431,0.418,0.218,0.190,north,5.1,No
2015/12/14,09:50,0.453,0.267,0.475,0.432,0.418,0.217,0.189,north,4.5,No
2015/12/14,10:00,0.450,0.266,0.475,0.432,0.417,0.218,0.189,north,5.0,No
2015/12/14,10:10,0.454,0.267,0.473,0.433,0.419,0.218,0.190,north-northwest,5.2,No
2015/12/14,10:20,0.450,0.267,0.478,0.429,0.417,0.217,0.189,north,5.5,No
2015/12/14,10:30,0.450,0.268,0.473,0.432,0.417,0.219,0.189,north,5.5,No
2015/12/14,10:40,0.451,0.267,0.477,0.432,0.418,0.218,0.190,north,6.2,No
2015/12/14,10:50,0.452,0.268,0.473,0.431,0.416,0.218,0.190,north,6.3,No
2015/12/14,11:00,0.454,0.266,0.475,0.431,0.419,0.218,0.189,north,6.3,No
2015/12/14,11:10,0.450,0.266,0.475,0.433,0.418,0.219,0.189,north,5.9,No
2015/12/14,11:20,0.453,0.267,0.472,0.433,0.419,0.218,0.190,north,5.2,No
2015/12/14,11:30,0.450,0.267,0.477,0.431,0.419,0.218,0.189,north,5.7,No
2015/12/14,11:40,0.451,0.268,0.474,0.432,0.419,0.218,0.189,north,6.0,No
2015/12/14,11:50,0.452,0.266,0.477,0.430,0.420,0.218,0.190,north,4.5,No
2015/12/14,12:00,0.450,0.266,0.475,0.435,0.417,0.218,0.190,north,5.7,No
2015/12/14,12:10,0.452,0.268,0.474,0.432,0.421,0.218,0.190,north,6.0,No
2015/12/14,12:20,0.451,0.266,0.477,0.433,0.418,0.218,0.190,north,5.7,No
2015/12/14,12:30,0.453,0.267,0.473,0.432,0.421,0.218,0.190,north,4.5,No
2015/12/14,12:40,0.451,0.267,0.477,0.431,0.420,0.217,0.191,north,5.2,No
2015/12/14,12:50,0.452,0.266,0.473,0.433,0.418,0.219,0.190,north,5.5,No
2015/12/14,13:00,0.454,0.268,0.477,0.431,0.420,0.219,0.190,north,6.3,No
2015/12/14,13:10,0.450,0.267,0.474,0.434,0.418,0.218,0.190,north,5.8,No
2015/12/14,13:20,0.453,0.267,0.475,0.432,0.419,0.218,0.190,north,4.2,No
2015/12/14,13:30,0.450,0.268,0.477,0.433,0.419,0.219,0.190,north,5.6,No
2015/12/14,13:40,0.453,0.267,0.473,0.433,0.419,0.218,0.190,north,5.1,No
2015/12/14,13:50,0.451,0.267,0.478,0.432,0.420,0.218,0.189,north,5.2,No
2015/12/14,14:00,0.452,0.268,0.474,0.434,0.417,0.219,0.191,north,3.7,No
2015/12/14,14:10,0.454,0.266,0.476,0.432,0.421,0.218,0.192,north,3.3,No
2015/12/14,14:20,0.450,0.268,0.476,0.434,0.417,0.218,0.190,north,4.5,No
2015/12/14,14:30,0.453,0.266,0.476,0.432,0.419,0.218,0.190,north,4.2,No
2015/12/14,14:40,0.451,0.267,0.476,0.435,0.419,0.219,0.191,north,3.9,No
2015/12/14,14:50,0.452,0.268,0.474,0.431,0.418,0.218,0.190,north,5.3,No
2015/12/14,15:00,0.454,0.267,0.478,0.432,0.420,0.218,0.191,north,5.3,No
2015/12/14,15:10,0.451,0.270,0.475,0.435,0.417,0.218,0.190,north,4.3,No
2015/12/14,15:20,0.455,0.266,0.477,0.432,0.418,0.218,0.190,north,5.5,No
2015/12/14,15:30,0.452,0.267,0.475,0.435,0.420,0.219,0.190,north,5.8,No
2015/12/14,15:40,0.453,0.269,0.475,0.433,0.418,0.218,0.191,north,4.0,No
2015/12/14,15:50,0.452,0.266,0.477,0.434,0.418,0.219,0.189,north,5.8,No
2015/12/14,16:00,0.451,0.266,0.474,0.433,0.417,0.219,0.190,north,5.0,No
2015/12/14,16:10,0.456,0.266,0.478,0.432,0.419,0.217,0.190,north-northwest,4.5,No
2015/12/14,16:20,0.452,0.267,0.476,0.435,0.420,0.217,0.189,north-northwest,3.9,No
2015/12/14,16:30,0.453,0.268,0.476,0.432,0.418,0.218,0.189,north-northwest,4.2,No
2015/12/14,16:40,0.452,0.267,0.479,0.433,0.417,0.218,0.191,north-northwest,3.9,No
2015/12/14,16:50,0.451,0.268,0.474,0.434,0.419,0.218,0.189,north-northwest,4.2,No
2015/12/14,17:00,0.454,0.266,0.477,0.431,0.419,0.217,0.190,north-northwest,4.6,No
2015/12/14,17:10,0.452,0.267,0.475,0.434,0.419,0.218,0.189,north-northwest,5.4,No
2015/12/14,17:20,0.453,0.268,0.477,0.431,0.418,0.218,0.190,north-northwest,5.3,No
2015/12/14,17:30,0.453,0.267,0.476,0.433,0.419,0.218,0.190,north-northwest,5.5,No
2015/12/14,17:40,0.451,0.267,0.475,0.434,0.419,0.218,0.191,north-northwest,5.6,No
2015/12/14,17:50,0.454,0.268,0.477,0.432,0.418,0.217,0.189,north-northwest,5.8,No
2015/12/14,18:00,0.453,0.267,0.475,0.435,0.418,0.218,0.189,north-northwest,5.7,No
2015/12/14,18:10,0.452,0.268,0.476,0.432,0.417,0.218,0.191,north-northwest,5.3,No
2015/12/14,18:20,0.454,0.268,0.475,0.433,0.418,0.218,0.190,north-northwest,5.5,No
2015/12/14,18:30,0.452,0.266,0.475,0.434,0.418,0.217,0.191,north-northwest,5.2,No
2015/12/14,18:40,0.454,0.268,0.480,0.431,0.418,0.219,0.190,north-northwest,5.9,No
2015/12/14,18:50,0.451,0.267,0.474,0.436,0.417,0.218,0.190,north-northwest,5.8,No
2015/12/14,19:00,0.453,0.267,0.476,0.431,0.419,0.218,0.189,north-northwest,5.2,No
2015/12/14,19:10,0.454,0.269,0.475,0.432,0.418,0.219,0.191,north-northwest,5.6,No
2015/12/14,19:20,0.451,0.267,0.474,0.433,0.418,0.218,0.190,north-northwest,5.2,No
2015/12/14,19:30,0.453,0.267,0.477,0.434,0.419,0.218,0.189,north-northwest,5.4,No
2015/12/14,19:40,0.453,0.269,0.475,0.432,0.418,0.218,0.191,north-northwest,5.8,No
2015/12/14,19:50,0.450,0.267,0.476,0.433,0.419,0.218,0.191,north-northwest,5.4,No
2015/12/14,20:00,0.453,0.268,0.477,0.432,0.418,0.219,0.191,north-northwest,5.4,No
2015/12/14,20:10,0.450,0.267,0.475,0.434,0.417,0.218,0.191,north-northwest,4.3,No
2015/12/14,20:20,0.454,0.267,0.478,0.432,0.419,0.218,0.189,north-northwest,4.6,No
2015/12/14,20:30,0.451,0.268,0.475,0.433,0.417,0.219,0.190,north-northwest,4.2,No
2015/12/14,20:40,0.451,0.266,0.475,0.434,0.419,0.218,0.190,north-northwest,4.5,No
2015/12/14,20:50,0.453,0.267,0.478,0.432,0.418,0.219,0.190,north-northwest,4.0,No
2015/12/14,21:00,0.452,0.266,0.474,0.433,0.418,0.217,0.190,north-northwest,3.7,No
2015/12/14,21:10,0.452,0.267,0.477,0.433,0.419,0.219,0.189,north-northwest,4.3,No
2015/12/14,21:20,0.452,0.269,0.476,0.432,0.419,0.220,0.190,north-northwest,4.4,No
2015/12/14,21:30,0.453,0.266,0.476,0.435,0.419,0.218,0.190,north-northwest,5.5,No
2015/12/14,21:40,0.455,0.266,0.477,0.432,0.420,0.217,0.190,north-northwest,5.4,No
2015/12/14,21:50,0.451,0.268,0.474,0.433,0.419,0.219,0.190,north-northwest,5.4,No
2015/12/14,22:00,0.454,0.266,0.477,0.434,0.417,0.218,0.191,north,5.2,No
2015/12/14,22:10,0.452,0.268,0.474,0.431,0.420,0.218,0.191,north-northwest,5.2,No
2015/12/14,22:20,0.451,0.267,0.476,0.435,0.417,0.219,0.190,north,5.7,No
2015/12/14,22:30,0.454,0.267,0.478,0.432,0.419,0.218,0.189,north-northwest,5.4,No
2015/12/14,22:40,0.451,0.268,0.475,0.434,0.417,0.218,0.189,north-northwest,5.4,No
2015/12/14,22:50,0.454,0.267,0.477,0.433,0.417,0.218,0.190,north-northwest,5.5,No
2015/12/14,23:00,0.452,0.265,0.476,0.432,0.418,0.218,0.190,north-northwest,5.7,No
2015/12/14,23:10,0.452,0.268,0.477,0.435,0.418,0.218,0.191,north-northwest,5.4,No
2015/12/14,23:20,0.454,0.266,0.477,0.432,0.419,0.218,0.190,north-northwest,5.8,No
2015/12/14,23:30,0.451,0.267,0.476,0.433,0.419,0.218,0.191,north-northwest,5.8,No
2015/12/14,23:40,0.456,0.266,0.477,0.434,0.417,0.218,0.190,north-northwest,5.8,No
2015/12/14,23:50,0.451,0.268,0.476,0.431,0.421,0.218,0.190,north-northwest,4.9,No
